Stündliche Wetter Otomino

Heute, 15 April, Donnerstag

Zeit Temperatur Niederschläge Wind Luftdruck Luftfeuchtigkeit
00:00 -1°C° 0 mm 6 m/S 754 mmHg 81%
01:00 -1°C° 0 mm 6 m/S 754 mmHg 81%
02:00 -1°C° 0.1 mm 6 m/S 754 mmHg 80%
03:00 -1°C° 0.1 mm 6 m/S 754 mmHg 80%
04:00 -1°C° 0.1 mm 6 m/S 754 mmHg 79%
05:00 -1°C° 0 mm 7 m/S 754 mmHg 79%
06:00 -1°C° 0 mm 7 m/S 754 mmHg 79%
07:00 -1°C° 0 mm 8 m/S 754 mmHg 79%
08:00 0°C° 0.2 mm 8 m/S 754 mmHg 82%
09:00 0°C° 0.2 mm 8 m/S 754 mmHg 84%
10:00 0°C° 0.2 mm 8 m/S 754 mmHg 86%
11:00 0°C° 0.1 mm 8 m/S 753 mmHg 85%
12:00 0°C° 0.1 mm 8 m/S 753 mmHg 83%
13:00 +1°C° 0.1 mm 8 m/S 753 mmHg 81%
14:00 +1°C° 0.1 mm 8 m/S 753 mmHg 80%
15:00 +2°C° 0.1 mm 7 m/S 753 mmHg 79%
16:00 +2°C° 0.1 mm 7 m/S 753 mmHg 77%
17:00 +2°C° 0 mm 7 m/S 753 mmHg 78%
18:00 +2°C° 0 mm 7 m/S 753 mmHg 78%
19:00 +2°C° 0 mm 7 m/S 753 mmHg 79%
20:00 0°C° 0 mm 7 m/S 753 mmHg 80%
21:00 +1°C° 0 mm 6 m/S 753 mmHg 80%
22:00 +1°C° 0 mm 6 m/S 753 mmHg 81%
23:00 +1°C° 0 mm 6 m/S 753 mmHg 82%

Morgen, 16 April, Freitag

Zeit Temperatur Niederschläge Wind Luftdruck Luftfeuchtigkeit
00:00 +1°C° 0 mm 6 m/S 752 mmHg 83%
01:00 +1°C° 0 mm 6 m/S 752 mmHg 84%
02:00 +1°C° 0 mm 6 m/S 752 mmHg 84%
03:00 +1°C° 0 mm 6 m/S 752 mmHg 84%
04:00 +1°C° 0 mm 6 m/S 752 mmHg 84%
05:00 +1°C° 0 mm 6 m/S 752 mmHg 83%
06:00 +1°C° 0 mm 6 m/S 752 mmHg 83%
07:00 +1°C° 0 mm 6 m/S 752 mmHg 82%
08:00 +1°C° 0 mm 6 m/S 752 mmHg 84%
09:00 +1°C° 0 mm 6 m/S 752 mmHg 86%
10:00 +1°C° 0 mm 6 m/S 752 mmHg 89%
11:00 +1°C° 0 mm 6 m/S 752 mmHg 88%
12:00 +1°C° 0 mm 5 m/S 752 mmHg 87%
13:00 +2°C° 0 mm 5 m/S 752 mmHg 86%
14:00 +2°C° 0.1 mm 5 m/S 752 mmHg 88%
15:00 +2°C° 0.1 mm 5 m/S 752 mmHg 90%
16:00 +2°C° 0.1 mm 5 m/S 751 mmHg 92%
17:00 +1°C° 0.3 mm 4 m/S 752 mmHg 94%
18:00 +1°C° 0.3 mm 4 m/S 752 mmHg 95%
19:00 +2°C° 0.3 mm 3 m/S 752 mmHg 97%
20:00 +2°C° 0 mm 3 m/S 752 mmHg 97%
21:00 +3°C° 0 mm 3 m/S 752 mmHg 97%
22:00 +4°C° 0 mm 2 m/S 752 mmHg 98%
23:00 +4°C° 0 mm 2 m/S 752 mmHg 98%

übermorgen, 17 April, Samstag

Zeit Temperatur Niederschläge Wind Luftdruck Luftfeuchtigkeit
00:00 +4°C° 0 mm 2 m/S 752 mmHg 98%
01:00 +4°C° 0 mm 2 m/S 752 mmHg 98%
02:00 +3°C° 0 mm 3 m/S 752 mmHg 97%
03:00 +4°C° 0 mm 3 m/S 752 mmHg 97%
04:00 +4°C° 0 mm 3 m/S 752 mmHg 97%
05:00 +4°C° 0 mm 3 m/S 752 mmHg 97%
06:00 +4°C° 0 mm 4 m/S 752 mmHg 96%
07:00 +4°C° 0 mm 4 m/S 752 mmHg 96%
08:00 +5°C° 0 mm 4 m/S 752 mmHg 96%
09:00 +5°C° 0 mm 4 m/S 752 mmHg 95%
10:00 +5°C° 0 mm 4 m/S 752 mmHg 95%
11:00 +6°C° 0 mm 4 m/S 752 mmHg 90%
12:00 +8°C° 0 mm 4 m/S 752 mmHg 85%
13:00 +10°C° 0 mm 4 m/S 752 mmHg 80%
14:00 +10°C° 0.1 mm 4 m/S 752 mmHg 81%
15:00 +10°C° 0.1 mm 4 m/S 752 mmHg 83%
16:00 +10°C° 0.1 mm 4 m/S 752 mmHg 84%
17:00 +8°C° 0.1 mm 4 m/S 752 mmHg 88%
18:00 +8°C° 0.1 mm 3 m/S 752 mmHg 91%
19:00 +7°C° 0.1 mm 3 m/S 753 mmHg 94%
20:00 +7°C° 0 mm 2 m/S 753 mmHg 94%
21:00 +6°C° 0 mm 2 m/S 753 mmHg 95%
22:00 +6°C° 0 mm 2 m/S 753 mmHg 95%
23:00 +6°C° 0 mm 2 m/S 753 mmHg 95%

18 April, Sonntag

Zeit Temperatur Niederschläge Wind Luftdruck Luftfeuchtigkeit
00:00 +6°C° 0 mm 2 m/S 752 mmHg 95%
01:00 +6°C° 0 mm 2 m/S 752 mmHg 95%
02:00 +6°C° 0.2 mm 2 m/S 752 mmHg 96%
03:00 +6°C° 0.2 mm 2 m/S 752 mmHg 97%
04:00 +5°C° 0.2 mm 3 m/S 752 mmHg 98%
05:00 +6°C° 0.2 mm 2 m/S 752 mmHg 97%
06:00 +7°C° 0.2 mm 2 m/S 752 mmHg 96%
07:00 +7°C° 0.2 mm 2 m/S 752 mmHg 96%
08:00 +7°C° 0.2 mm 2 m/S 752 mmHg 94%
09:00 +8°C° 0.2 mm 2 m/S 752 mmHg 92%
10:00 +9°C° 0.2 mm 2 m/S 752 mmHg 89%
11:00 +9°C° 0.3 mm 2 m/S 752 mmHg 87%
12:00 +9°C° 0.3 mm 3 m/S 751 mmHg 85%
13:00 +10°C° 0.3 mm 3 m/S 751 mmHg 82%
14:00 +10°C° 0.1 mm 3 m/S 751 mmHg 80%
15:00 +10°C° 0.1 mm 3 m/S 751 mmHg 78%
16:00 +10°C° 0.1 mm 3 m/S 751 mmHg 76%
17:00 +9°C° 0 mm 3 m/S 751 mmHg 78%
18:00 +9°C° 0 mm 2 m/S 752 mmHg 81%
19:00 +8°C° 0 mm 2 m/S 752 mmHg 83%
20:00 +8°C° 0 mm 2 m/S 752 mmHg 83%
21:00 +7°C° 0 mm 2 m/S 752 mmHg 84%
22:00 +7°C° 0 mm 2 m/S 752 mmHg 84%
23:00 +8°C° 0 mm 1 m/S 752 mmHg 84%

19 April, Montag

Zeit Temperatur Niederschläge Wind Luftdruck Luftfeuchtigkeit
00:00 +8°C° 0 mm 1 m/S 752 mmHg 84%
01:00 +7°C° 0 mm 1 m/S 752 mmHg 84%
02:00 +7°C° 0 mm 1 m/S 752 mmHg 84%
03:00 +7°C° 0 mm 1 m/S 752 mmHg 84%
04:00 +6°C° 0 mm 2 m/S 752 mmHg 85%
05:00 +6°C° 0 mm 2 m/S 752 mmHg 82%
06:00 +7°C° 0 mm 2 m/S 752 mmHg 80%
07:00 +8°C° 0 mm 2 m/S 751 mmHg 77%
08:00 +9°C° 0 mm 3 m/S 751 mmHg 72%
09:00 +10°C° 0 mm 3 m/S 751 mmHg 66%
10:00 +11°C° 0 mm 4 m/S 751 mmHg 60%
11:00 +12°C° 0 mm 4 m/S 751 mmHg 60%
12:00 +12°C° 0 mm 4 m/S 750 mmHg 59%
13:00 +12°C° 0 mm 4 m/S 750 mmHg 58%
14:00 +12°C° 0 mm 4 m/S 750 mmHg 61%
15:00 +10°C° 0 mm 5 m/S 750 mmHg 63%
16:00 +10°C° 0 mm 5 m/S 749 mmHg 66%
17:00 +10°C° 0 mm 4 m/S 749 mmHg 70%
18:00 +8°C° 0 mm 4 m/S 749 mmHg 74%
19:00 +7°C° 0 mm 4 m/S 749 mmHg 77%
20:00 +8°C° 0 mm 3 m/S 748 mmHg 80%
21:00 +7°C° 0 mm 3 m/S 748 mmHg 82%
22:00 +7°C° 0 mm 3 m/S 747 mmHg 84%
23:00 +7°C° 0 mm 2 m/S 747 mmHg 86%

20 April, Dienstag

Zeit Temperatur Niederschläge Wind Luftdruck Luftfeuchtigkeit
00:00 +7°C° 0 mm 2 m/S 747 mmHg 88%
01:00 +6°C° 0 mm 2 m/S 746 mmHg 90%
02:00 +6°C° 0 mm 2 m/S 746 mmHg 92%
03:00 +6°C° 0 mm 2 m/S 746 mmHg 93%
04:00 +5°C° 0 mm 3 m/S 746 mmHg 94%
05:00 +7°C° 0 mm 3 m/S 745 mmHg 93%
06:00 +7°C° 0 mm 3 m/S 745 mmHg 91%
07:00 +7°C° 0 mm 4 m/S 745 mmHg 89%
08:00 +7°C° 0 mm 4 m/S 745 mmHg 85%
09:00 +8°C° 0 mm 5 m/S 744 mmHg 81%
10:00 +8°C° 0 mm 5 m/S 744 mmHg 77%
11:00 +8°C° 0 mm 5 m/S 744 mmHg 79%
12:00 +8°C° 0 mm 5 m/S 744 mmHg 81%
13:00 +7°C° 0 mm 4 m/S 743 mmHg 83%
14:00 +8°C° 0 mm 4 m/S 743 mmHg 81%
15:00 +8°C° 0 mm 4 m/S 743 mmHg 79%
16:00 +8°C° 0 mm 4 m/S 743 mmHg 77%
17:00 +7°C° 0.1 mm 4 m/S 742 mmHg 80%
18:00 +7°C° 0.1 mm 4 m/S 742 mmHg 82%
19:00 +6°C° 0.1 mm 4 m/S 742 mmHg 85%
20:00 +6°C° 0 mm 4 m/S 742 mmHg 86%
21:00 +6°C° 0 mm 4 m/S 741 mmHg 86%
22:00 +5°C° 0 mm 3 m/S 741 mmHg 87%
23:00 +5°C° 0 mm 3 m/S 741 mmHg 87%
Mehr zeigen

Wir brauchen deine Erlaubnis

Meteoprog und unser Service Anbieter werden persönliche Daten aufbewahren, so wie Cookies, Geräte Bezeichnung oder ähnliche Technologien von deinem Gerät und Prozess, so wie Persönliche Daten Inhalte und Werbungen, genauso wie social Media und den Verkehr zu analysieren.

  • Aufbewahrung und/oder Zugang zu deiner Geräte Informationen.

    Cookies, Geräte Bezeichnung oder andere Informationen, können aufbewahrt oder Zugang zu deinem Gerät erhalten, für den Grund, der oben angegeben wird.

  • Personalisierte Werbung und Inhalte, Messungen, Einblick in das Publikum und Produkt Entwicklung.

    Werbungen und Inhalte können personalisiert werden, basierend auf ein Profil. Mehr Daten können besser personalisierte Werbungen und Inhalte hinzufügen. Werbung und Inhalte können gezeigt und gemessen werden. Einblicke über das Publikum, welche die Werbung gesehen haben und den Inhalt, können abgeleitet werden. So wie Daten können genutzt werden, um es zu verbessern oder die Benutzer Erfahrung zu verbessern das System und die Software.

Wenn du “Ich stimme zu” klickst, erlaubst du uns, die Cookies zu benutzen die Geräte Bezeichnung, den Web oder ähnliche Technologien zu benutzen. Deine Settings, können in deinem Gerät bei deinem Browser geändert werden.

Für den bestimmten Zweck, berechtigten Interessen beruhen darauf, mehr als auf den Inhalt. Du kannst mehr darüber in unseren Privaten und Cookie Politik lesen.